This demonstration page uses our WeatherBlox Daily Observations layout. Learn more.

Left ArrowRight Arrow

47.50024, -111.30081

Hourly Observations for March 2, 2015

Temp ( °F °C ) Dew Point ( °F °C ) Humidity (%) Winds ( mph kmh ) Pressure ( in mb ) Visibility ( mi km ) Precip ( " mm )
12:53 am 00:53 Cloudy 30 -1.1 10 -12.2 43 43 SSW 20 31 29.94 1014 10 16 0.00 0.00
1:53 am 01:53 Cloudy 30 -1.1 9 -12.8 41 41 SW 21 33 29.93 1014 10 16 0.00 0.00
2:53 am 02:53 Cloudy 30 -1.1 9 -12.8 41 41 SSW 23 37 29.90 1013 10 16 0.00 0.00
3:53 am 03:53 Mostly Cloudy 29 -1.7 10 -12.2 45 45 SSW 18 30 29.89 1012 10 16 0.00 0.00
4:53 am 04:53 Cloudy 29 -1.7 9 -12.8 43 43 SSW 14 22 29.90 1013 10 16 0.00 0.00
5:53 am 05:53 Cloudy 27 -2.8 10 -12.2 49 49 SW 10 17 29.92 1013 10 16 0.00 0.00
6:53 am 06:53 Cloudy 27 -2.8 10 -12.2 49 49 WSW 10 17 29.94 1014 10 16 0.00 0.00
7:53 am 07:53 Cloudy 29 -1.7 12 -11.1 49 49 W 5 7 29.95 1014 10 16 0.00 0.00
8:53 am 08:53 Cloudy 32 0 14 -10 47 47 NNW 10 17 29.98 1015 10 16 0.00 0.00
9:53 am 09:53 Partly Cloudy 32 0 21 -6.1 64 64 N 17 28 29.98 1015 10 16 0.00 0.00
10:22 am 10:22 Mostly Cloudy 30 -1 21 -6 69 69 N 17 28 30.03 1017 10 16 0.00 0.00
10:53 am 10:53 Cloudy 30 -1.1 21 -6.1 69 69 N 15 24 30.01 1016 10 16 0.00 0.00
12:46 pm 12:46 Cloudy with Light Snow 28 -2 23 -5 80 80 NNE 15 24 30.03 1017 1 1 0.00 0.00
12:53 pm 12:53 Cloudy with Light Snow 28 -2.2 23 -5 81 81 NNE 16 26 30.02 1017 1 1 0.00 0.03
1:13 pm 13:13 Cloudy with Light Snow 28 -2 25 -4 86 86 NNE 16 26 30.06 1018 1 1 0.00 0.03
1:20 pm 13:20 Cloudy with Light Snow 28 -2 23 -5 80 80 NNE 15 24 30.06 1018 2 2 0.00 0.00
1:24 pm 13:24 Cloudy with Light Snow 28 -2 23 -5 80 80 NNE 15 24 30.06 1018 3 5 0.00 0.00
1:31 pm 13:31 Cloudy with Light Snow 28 -2 23 -5 80 80 N 18 30 30.06 1018 1 2 0.00 0.03
1:53 pm 13:53 Cloudy with Light Snow 27 -2.8 23 -5 85 85 N 15 24 30.04 1017 2 3 0.00 0.03
2:11 pm 14:11 Cloudy with Light Snow 27 -3 23 -5 86 86 N 18 30 30.09 1019 1 2 0.00 0.03
2:21 pm 14:21 Windy with Snow Likely 27 -3 23 -5 86 86 N 23 37 30.09 1019 1 1 0.00 0.03
2:28 pm 14:28 Cloudy with Light Snow 27 -3 23 -5 86 86 N 16 26 30.09 1019 1 1 0.00 0.03
2:36 pm 14:36 Windy with Snow Likely 27 -3 23 -5 86 86 N 20 31 30.09 1019 2 2 0.01 0.25
2:39 pm 14:39 Windy with Snow Likely 27 -3 21 -6 80 80 N 21 33 30.09 1019 3 5 0.01 0.25
2:46 pm 14:46 Windy with Snow Likely 27 -3 21 -6 80 80 N 24 39 30.09 1019 1 2 0.01 0.25
2:51 pm 14:51 Windy with Snow Likely 25 -4 21 -6 86 86 N 25 41 30.09 1019 1 1 0.00 0.00
2:53 pm 14:53 Windy with Snow Likely 24 -4.4 21 -6.1 88 88 N 21 33 30.07 1018 1 1 0.01 0.25
3:01 pm 15:01 Windy with Snow Likely 25 -4 21 -6 86 86 N 24 39 30.09 1019 2 2 0.00 0.03
3:04 pm 15:04 Windy with Snow Likely 25 -4 21 -6 86 86 N 28 44 30.09 1019 2 3 0.00 0.00
3:24 pm 15:24 Windy with Snow Likely 25 -4 19 -7 80 80 N 23 37 30.09 1019 3 4 0.00 0.00
3:31 pm 15:31 Windy with Snow Likely 25 -4 19 -7 80 80 N 26 43 30.09 1019 3 4 0.00 0.03
3:34 pm 15:34 Windy with Snow Likely 25 -4 19 -7 80 80 N 28 44 30.09 1019 6 10 0.00 0.03
3:53 pm 15:53 Cloudy 24 -4.4 17 -8.3 75 75 N 24 39 30.09 1019 10 16 0.00 0.03
4:14 pm 16:14 Cloudy 21 -6 16 -9 80 80 N 25 41 30.18 1022 10 16 0.00 0.00
4:36 pm 16:36 Cloudy 21 -6 12 -11 68 68 N 24 39 30.18 1022 10 16 0.00 0.00
4:53 pm 16:53 Cloudy 20 -6.7 12 -11.1 71 71 N 21 33 30.14 1021 10 16 0.00 0.00
5:13 pm 17:13 Cloudy 19 -7 12 -11 73 73 N 21 33 30.21 1023 10 16 0.00 0.00
5:50 pm 17:50 Cloudy 19 -7 12 -11 73 73 N 20 31 30.21 1023 10 16 0.00 0.00
5:53 pm 17:53 Cloudy 19 -7.2 12 -11.1 74 74 N 22 35 30.17 1022 10 16 0.00 0.03
6:06 pm 18:06 Windy with Snow Likely 19 -7 12 -11 73 73 N 22 35 30.21 1023 1 1 0.00 0.03
6:14 pm 18:14 Windy with Snow Likely 18 -8 14 -10 86 86 N 20 31 30.24 1024 1 1 0.00 0.00
6:27 pm 18:27 Cloudy with Light Snow 18 -8 14 -10 86 86 N 15 24 30.27 1025 1 2 0.00 0.03
6:53 pm 18:53 Cloudy with Light Snow 18 -7.8 15 -9.4 88 88 N 15 24 30.21 1023 1 2 0.00 0.03
6:57 pm 18:57 Cloudy with Light Snow 18 -8 16 -9 93 93 NNE 14 22 30.27 1025 2 2 0.00 0.03
7:04 pm 19:04 Cloudy with Light Snow 18 -8 14 -10 86 86 NNE 13 20 30.27 1025 3 5 0.00 0.00
7:41 pm 19:41 Cloudy with Light Snow 18 -8 12 -11 79 79 NNE 12 19 30.30 1026 5 8 0.00 0.03
7:53 pm 19:53 Cloudy with Light Snow 17 -8.3 14 -10 88 88 NE 9 15 30.22 1024 4 6 0.00 0.03
8:42 pm 20:42 Cloudy with Light Snow 18 -8 14 -10 86 86 NNE 8 13 30.30 1026 3 5 0.00 0.00
8:49 pm 20:49 Cloudy with Light Snow 18 -8 14 -10 86 86 NNE 9 15 30.30 1026 2 3 0.00 0.03
8:53 pm 20:53 Cloudy with Light Snow 17 -8.3 14 -10 88 88 NNE 9 15 30.22 1024 2 3 0.00 0.03
9:39 pm 21:39 Windy with Snow Likely 14 -10 9 -13 79 79 NNE 22 35 30.36 1028 3 5 0.00 0.03
9:53 pm 21:53 Cloudy with Light Snow 14 -10 8 -13.3 77 77 NNE 16 26 30.27 1025 4 6 0.00 0.03
10:53 pm 22:53 Cloudy 13 -10.6 7 -13.9 77 77 NE 15 24 30.31 1027 10 16 0.00 0.03
11:53 pm 23:53 Cloudy 12 -11.1 7 -13.9 80 80 NE 9 15 30.34 1027 10 16 0.00 0.00

Powered by AerisWeather